{"data":{"norad_id":53693,"intl_designator":"2022-105AX","name":"STARLINK-4566","alt_names":[],"object_type":"PAYLOAD","status":"ACTIVE","operator":null,"country":"US","launch_date":"2022-08-31","launch_site_code":"AFWTR","launch_vehicle":null,"mission":null,"orbit_class":"UNKNOWN","rcs_meters":null,"size_class":null,"mass_kg":null,"dimensions":null,"purposes":["comms"],"wikipedia_slug":null,"has_3d_model":false,"image_url":null,"decayed_at":null,"tle_current":{"epoch":"2026-05-25T03:02:54.948768Z","epoch_age_seconds":57919,"freshness":"FRESH","line1":"1 53693U 22105AX  26145.12702487  .00007469  00000+0  52173-3 0  9991","line2":"2 53693  97.4508  26.2667 0001756  81.7212 278.4214 15.05609854204816","mean_motion":15.05609854,"eccentricity":0.0001756,"inclination_deg":97.4508,"raan_deg":26.2667,"arg_perigee_deg":81.7212,"mean_anomaly_deg":278.4214,"bstar":0.00052173,"rev_number":20481,"period_min":95.642307080703,"perigee_km":548.41778400986,"apogee_km":550.85081729065,"semimajor_km":6927.7713006503,"source":"CELESTRAK","updated_at":"2026-05-25T13:38:17.531259Z"}}}